Weather History for White Mountain, AK

Change the Weather History Date:

Friday, October 25, 2013

  Actual Average (PAKK) Record (PAKK)
Temperature  
Mean Temperature 34 °F -  
Max Temperature 39 °F 25 °F 41 °F (2002)
Min Temperature 30 °F 18 °F 8 °F (2008)
Degree Days  
Heating Degree Days 30    
Moisture  
Dew Point 32 °F    
Average Humidity 88    
Maximum Humidity 96    
Minimum Humidity 75    
Precipitation  
Precipitation 0.10 in - - ()
Sea Level Pressure  
Sea Level Pressure 29.61 in    
Wind  
Wind Speed 12 mph (East)    
Max Wind Speed 25 mph    
Max Gust Speed 32 mph    
Visibility 8 miles    
Events Rain , Snow    
Averages and records for this station are not official NWS values.
T = Trace of Precipitation, MM = Missing Value Source: NWS Daily Summary

Daily Weather History Graph

Daily Weather History Graph

Search for Another Location

Airport:

Trip Planner

Search our weather history database for the weather conditions in past years. The results will help you decide how hot, cold, wet, or windy it might be!

Date:

Astronomy

Oct. 25, 2013 Rise Set
Actual Time 10:18 AM AKDT 6:55 PM AKDT
Civil Twilight 9:26 AM AKDT 7:47 PM AKDT
Nautical Twilight 8:29 AM AKDT 8:44 PM AKDT
Astronomical Twilight 7:32 AM AKDT 9:40 PM AKDT
Moon 11:54 PM AKDT (10/25) 4:43 PM AKDT (10/25)
Length of Visible Light 10h 20m
Length of Day
8h 36m
Waning Gibbous, 61% of the Moon is Illuminated
Oct 25
Waning Gibbous
Oct 26
Last Quarter
Nov 3
New
Nov 9
First Quarter
Nov 17
Full

Hourly Weather History & Observations

Time (AKDT) Temp. Windchill Dew Point Humidity Pressure Visibility Wind Dir Wind Speed Gust Speed Precip Events Conditions
12:19 AM 30.2 °F 22.6 °F 28.4 °F 93% 29.47 in 1.8 mi NE 8.1 mph - 0.01 in Snow Light Snow
12:26 AM 30.2 °F 23.4 °F 28.4 °F 93% 29.47 in 2.5 mi NNE 6.9 mph - 0.01 in Snow Light Snow
12:48 AM 30.2 °F 21.3 °F 28.4 °F 93% 29.47 in 3.0 mi NE 10.4 mph 16.1 mph 0.01 in Snow Light Snow
12:58 AM 30.9 °F 24.3 °F 30.0 °F 96% 29.50 in 5.0 mi NNE 6.9 mph - 0.02 in Snow Light Snow
1:45 AM 30.2 °F 19.3 °F 28.4 °F 93% 29.46 in 10.0 mi ENE 15.0 mph - 0.00 in   Overcast
1:58 AM 30.9 °F 21.7 °F 28.9 °F 92% 29.49 in 10.0 mi NE 11.5 mph - 0.00 in   Scattered Clouds
2:29 AM 32.0 °F 27.5 °F 28.4 °F 87% 29.47 in 10.0 mi NE 4.6 mph - N/A   Mostly Cloudy
2:37 AM 32.0 °F 25.6 °F 28.4 °F 87% 29.47 in 10.0 mi North 6.9 mph - N/A   Mostly Cloudy
2:58 AM 30.9 °F 22.8 °F 28.0 °F 89% 29.51 in 10.0 mi NE 9.2 mph 16.1 mph N/A   Mostly Cloudy
3:58 AM 32.0 °F 24.2 °F 28.0 °F 85% 29.51 in 10.0 mi NE 9.2 mph - N/A   Overcast
4:18 AM 30.2 °F 22.6 °F 28.4 °F 93% 29.47 in 10.0 mi NE 8.1 mph - N/A   Overcast
4:52 AM 32.0 °F 23.6 °F 28.4 °F 87% 29.47 in 10.0 mi ENE 10.4 mph - N/A   Mostly Cloudy
4:58 AM 32.0 °F 25.6 °F 28.9 °F 88% 29.52 in 10.0 mi ENE 6.9 mph - N/A   Mostly Cloudy
5:58 AM 35.1 °F 27.4 °F 30.9 °F 85% 29.52 in 10.0 mi East 10.4 mph - 0.01 in   Overcast
6:14 AM 35.6 °F 28.0 °F 30.2 °F 81% 29.49 in 10.0 mi East 10.4 mph - N/A   Overcast
6:21 AM 35.6 °F 26.6 °F 30.2 °F 81% 29.49 in 10.0 mi East 13.8 mph 17.3 mph N/A   Overcast
6:49 AM 35.6 °F 26.2 °F 30.2 °F 81% 29.49 in 10.0 mi East 15.0 mph 20.7 mph N/A   Overcast
6:58 AM 36.0 °F 26.7 °F 30.9 °F 82% 29.53 in 10.0 mi East 15.0 mph - N/A   Overcast
7:21 AM 37.4 °F 30.8 °F 30.2 °F 75% 29.51 in 10.0 mi East 9.2 mph - N/A   Overcast
7:58 AM 37.0 °F 28.5 °F 30.9 °F 79% 29.55 in 10.0 mi East 13.8 mph - N/A   Overcast
8:58 AM 36.0 °F 27.1 °F 30.9 °F 82% 29.56 in 10.0 mi East 13.8 mph - 0.00 in   Overcast
9:58 AM 36.0 °F 26.3 °F 30.9 °F 82% 29.58 in 10.0 mi East 16.1 mph - N/A   Overcast
10:35 AM 37.4 °F 28.2 °F 32.0 °F 81% 29.55 in 9.0 mi East 16.1 mph 21.9 mph N/A   Overcast
10:58 AM 36.0 °F 25.6 °F 32.0 °F 86% 29.60 in 9.0 mi ESE 18.4 mph 25.3 mph 0.00 in   Overcast
11:10 AM 35.6 °F 25.2 °F 32.0 °F 87% 29.57 in 7.0 mi East 18.4 mph 27.6 mph 0.00 in Rain Light Rain
11:24 AM 35.6 °F 25.2 °F 33.8 °F 93% 29.58 in 8.0 mi ESE 18.4 mph 25.3 mph 0.01 in Rain Light Rain
11:58 AM 35.1 °F 24.8 °F 33.1 °F 92% 29.62 in 9.0 mi ESE 17.3 mph - 0.01 in Rain Light Rain
12:58 PM 36.0 °F 26.3 °F 33.1 °F 89% 29.65 in 9.0 mi ESE 16.1 mph 23.0 mph 0.00 in Rain Light Rain
1:58 PM 37.0 °F 27.4 °F 34.0 °F 89% 29.67 in 7.0 mi ESE 17.3 mph - 0.02 in Rain Light Rain
2:58 PM 37.0 °F 27.7 °F 35.1 °F 93% 29.68 in 7.0 mi SE 16.1 mph 23.0 mph 0.01 in Rain Light Rain
3:58 PM 37.0 °F 27.4 °F 35.1 °F 93% 29.70 in 6.0 mi SE 17.3 mph - 0.01 in Rain Light Rain
4:56 PM 37.4 °F 27.8 °F 35.6 °F 93% 29.68 in 9.0 mi ESE 17.3 mph - 0.00 in Rain Light Rain
4:58 PM 37.9 °F 28.5 °F 35.1 °F 89% 29.72 in 9.0 mi ESE 17.3 mph 23.0 mph 0.00 in Rain Light Rain
5:58 PM 39.0 °F 29.9 °F 35.1 °F 86% 29.74 in 7.0 mi ESE 17.3 mph 25.3 mph 0.00 in   Overcast
6:58 PM 39.0 °F 30.3 °F 35.1 °F 86% 29.76 in 7.0 mi ESE 16.1 mph 21.9 mph N/A   Overcast
7:58 PM 39.0 °F 30.3 °F 35.1 °F 86% 29.79 in 9.0 mi ESE 16.1 mph - N/A   Overcast
8:58 PM 39.0 °F 29.9 °F 35.1 °F 86% 29.81 in 9.0 mi ESE 17.3 mph 23.0 mph 0.00 in Rain Light Rain
9:09 PM 39.2 °F 29.8 °F 35.6 °F 87% 29.78 in 10.0 mi ESE 18.4 mph 25.3 mph 0.00 in Rain Light Rain
9:50 PM 37.4 °F 27.5 °F 35.6 °F 93% 29.79 in 8.0 mi ESE 18.4 mph 27.6 mph 0.00 in Rain Light Rain
9:58 PM 37.9 °F 27.9 °F 35.1 °F 89% 29.83 in 8.0 mi ESE 19.6 mph 24.2 mph 0.00 in   Overcast
10:02 PM 37.4 °F 27.5 °F 35.6 °F 93% 29.79 in 8.0 mi ESE 18.4 mph 25.3 mph N/A   Overcast
10:13 PM 37.4 °F 27.2 °F 35.6 °F 93% 29.80 in 8.0 mi ESE 19.6 mph 24.2 mph N/A   Overcast
10:58 PM 37.9 °F 27.9 °F 36.0 °F 93% 29.84 in 8.0 mi SE 19.6 mph 24.2 mph 0.00 in Rain Light Rain
11:45 PM 37.4 °F 26.4 °F 35.6 °F 93% 29.82 in 7.0 mi SE 23.0 mph 31.1 mph 0.01 in Rain Light Rain
11:58 PM 37.9 °F 26.6 °F 36.0 °F 93% 29.86 in 7.0 mi SE 25.3 mph 32.2 mph 0.02 in Rain Light Rain